owner,sensor,date,latitude,longitude,vertical_datum,direction_of_sea_water_velocity,sea_water_speed,upward_sea_water_velocity,qcFlag 
ADCP,ioos:station:wmo:42890:1,2012-04-01T00:03:00Z,27.6250,-90.4410,15.2,115.0,17.7,-9999.0,'11111222,11111222,99999999' 
ADCP,ioos:station:wmo:42890:1,2012-04-01T00:23:00Z,27.6250,-90.4410,15.2,109.0,17.6,-9999.0,'11111222,11111222,99999999' 
ADCP,ioos:station:wmo:42890:1,2012-04-01T00:43:00Z,27.6250,-90.4410,15.2,105.0,17.9,-9999.0,'11111222,11111222,99999999' 
ADCP,ioos:station:wmo:42890:1,2012-04-01T01:03:00Z,27.6250,-90.4410,15.2,113.0,14.9,-9999.0,'11111222,11111222,99999999' 
ADCP,ioos:station:wmo:42890:1,2012-04-01T01:23:00Z,27.6250,-90.4410,15.2,115.0,16.3,-9999.0,'11111222,11111222,99999999' 
ADCP,ioos:station:wmo:42890:1,2012-04-01T01:43:00Z,27.6250,-90.4410,15.2,125.0,11.6,-9999.0,'11111222,11111222,99999999' 
ADCP,ioos:station:wmo:42890:1,2012-04-01T02:03:00Z,27.6250,-90.4410,15.2,128.0,11.9,-9999.0,'11111222,11111222,99999999' 
ADCP,ioos:station:wmo:42890:1,2012-04-01T02:23:00Z,27.6250,-90.4410,15.2,112.0,14.4,-9999.0,'11111222,11111222,99999999' 
ADCP,ioos:station:wmo:42890:1,2012-04-01T02:43:00Z,27.6250,-90.4410,15.2,122.0,12.2,-9999.0,'11111222,11111222,99999999' 
ADCP,ioos:station:wmo:42890:1,2012-04-01T03:03:00Z,27.6250,-90.4410,15.2,141.0,13.2,-9999.0,'11111222,11111222,99999999' 
ADCP,ioos:station:wmo:42890:1,2012-04-01T03:23:00Z,27.6250,-90.4410,15.2,109.0,14.6,-9999.0,'11111222,11111222,99999999' 
ADCP,ioos:station:wmo:42890:1,2012-04-01T03:43:00Z,27.6250,-90.4410,15.2,121.0,12.9,-9999.0,'11111222,11111222,99999999' 
ADCP,ioos:station:wmo:42890:1,2012-04-01T04:03:00Z,27.6250,-90.4410,15.2,120.0,13.7,-9999.0,'11111222,11111222,99999999' 
ADCP,ioos:station:wmo:42890:1,2012-04-01T04:23:00Z,27.6250,-90.4410,15.2,106.0,19.7,-9999.0,'11111222,11111222,99999999' 
ADCP,ioos:station:wmo:42890:1,2012-04-01T04:43:00Z,27.6250,-90.4410,15.2,124.0,13.9,-9999.0,'11111222,11111222,99999999' 
ADCP,ioos:station:wmo:42890:1,2012-04-01T05:03:00Z,27.6250,-90.4410,15.2,139.0,11.2,-9999.0,'11111222,11111222,99999999' 
ADCP,ioos:station:wmo:42890:1,2012-04-01T05:23:00Z,27.6250,-90.4410,15.2,132.0,12.3,-9999.0,'11111222,11111222,99999999' 
ADCP,ioos:station:wmo:42890:1,2012-04-01T05:43:00Z,27.6250,-90.4410,15.2,138.0,11.3,-9999.0,'11111222,11111222,99999999' 
ADCP,ioos:station:wmo:42890:1,2012-04-01T06:03:00Z,27.6250,-90.4410,15.2,140.0,11.5,-9999.0,'11111222,11111222,99999999' 
ADCP,ioos:station:wmo:42890:1,2012-04-01T06:23:00Z,27.6250,-90.4410,15.2,126.0,10.3,-9999.0,'11111222,11111222,99999999' 
ADCP,ioos:station:wmo:42890:1,2012-04-01T06:43:00Z,27.6250,-90.4410,15.2,125.0,11.5,-9999.0,'11111222,11111222,99999999' 
ADCP,ioos:station:wmo:42890:1,2012-04-01T07:03:00Z,27.6250,-90.4410,15.2,129.0,12.0,-9999.0,'11111222,11111222,99999999' 
ADCP,ioos:station:wmo:42890:1,2012-04-01T07:23:00Z,27.6250,-90.4410,15.2,131.0,10.6,-9999.0,'11111222,11111222,99999999' 
ADCP,ioos:station:wmo:42890:1,2012-04-01T07:43:00Z,27.6250,-90.4410,15.2,140.0,10.5,-9999.0,'11111222,11111222,99999999' 
ADCP,ioos:station:wmo:42890:1,2012-04-01T08:03:00Z,27.6250,-90.4410,15.2,155.0,8.8,-9999.0,'11133222,11111222,99999999' 
ADCP,ioos:station:wmo:42890:1,2012-04-01T08:23:00Z,27.6250,-90.4410,15.2,137.0,9.7,-9999.0,'11133222,11111222,99999999' 
ADCP,ioos:station:wmo:42890:1,2012-04-01T08:43:00Z,27.6250,-90.4410,15.2,138.0,9.5,-9999.0,'11133222,11111222,99999999' 
ADCP,ioos:station:wmo:42890:1,2012-04-01T09:03:00Z,27.6250,-90.4410,15.2,147.0,10.0,-9999.0,'11111222,11111222,99999999' 
ADCP,ioos:station:wmo:42890:1,2012-04-01T09:23:00Z,27.6250,-90.4410,15.2,139.0,7.7,-9999.0,'11133222,11111222,99999999' 
ADCP,ioos:station:wmo:42890:1,2012-04-01T09:43:00Z,27.6250,-90.4410,15.2,117.0,9.8,-9999.0,'11133222,11111222,99999999' 
ADCP,ioos:station:wmo:42890:1,2012-04-01T10:03:00Z,27.6250,-90.4410,15.2,115.0,11.2,-9999.0,'11111222,11111222,99999999' 
ADCP,ioos:station:wmo:42890:1,2012-04-01T10:23:00Z,27.6250,-90.4410,15.2,116.0,11.2,-9999.0,'11111222,11111222,99999999' 
ADCP,ioos:station:wmo:42890:1,2012-04-01T10:43:00Z,27.6250,-90.4410,15.2,117.0,8.8,-9999.0,'11133222,11111222,99999999' 
ADCP,ioos:station:wmo:42890:1,2012-04-01T11:03:00Z,27.6250,-90.4410,15.2,106.0,9.3,-9999.0,'11133222,11111222,99999999' 
ADCP,ioos:station:wmo:42890:1,2012-04-01T11:23:00Z,27.6250,-90.4410,15.2,88.0,11.7,-9999.0,'11111222,11111222,99999999' 
ADCP,ioos:station:wmo:42890:1,2012-04-01T11:43:00Z,27.6250,-90.4410,15.2,89.0,9.3,-9999.0,'11133222,11111222,99999999' 
ADCP,ioos:station:wmo:42890:1,2012-04-01T12:03:00Z,27.6250,-90.4410,15.2,90.0,9.3,-9999.0,'11133222,11111222,99999999' 
ADCP,ioos:station:wmo:42890:1,2012-04-01T12:23:00Z,27.6250,-90.4410,15.2,95.0,14.4,-9999.0,'11111222,11111222,99999999' 
ADCP,ioos:station:wmo:42890:1,2012-04-01T12:43:00Z,27.6250,-90.4410,15.2,98.0,10.5,-9999.0,'11111222,11111222,99999999' 
ADCP,ioos:station:wmo:42890:1,2012-04-01T13:03:00Z,27.6250,-90.4410,15.2,93.0,10.7,-9999.0,'11111222,11111222,99999999' 
ADCP,ioos:station:wmo:42890:1,2012-04-01T13:23:00Z,27.6250,-90.4410,15.2,80.0,15.9,-9999.0,'11111222,11111222,99999999' 
ADCP,ioos:station:wmo:42890:1,2012-04-01T13:43:00Z,27.6250,-90.4410,15.2,86.0,11.2,-9999.0,'11111222,11111222,99999999' 
ADCP,ioos:station:wmo:42890:1,2012-04-01T14:03:00Z,27.6250,-90.4410,15.2,83.0,10.3,-9999.0,'11111222,11111222,99999999' 
ADCP,ioos:station:wmo:42890:1,2012-04-01T14:23:00Z,27.6250,-90.4410,15.2,87.0,9.0,-9999.0,'11133222,11111222,99999999' 
ADCP,ioos:station:wmo:42890:1,2012-04-01T14:43:00Z,27.6250,-90.4410,15.2,76.0,14.0,-9999.0,'11111222,11111222,99999999' 
ADCP,ioos:station:wmo:42890:1,2012-04-01T15:03:00Z,27.6250,-90.4410,15.2,86.0,12.7,-9999.0,'11111222,11111222,99999999' 
ADCP,ioos:station:wmo:42890:1,2012-04-01T15:23:00Z,27.6250,-90.4410,15.2,86.0,13.9,-9999.0,'11111222,11111222,99999999' 
ADCP,ioos:station:wmo:42890:1,2012-04-01T15:43:00Z,27.6250,-90.4410,15.2,78.0,17.8,-9999.0,'11111222,11111222,99999999' 
ADCP,ioos:station:wmo:42890:1,2012-04-01T16:03:00Z,27.6250,-90.4410,15.2,79.0,19.9,-9999.0,'11111222,11111222,99999999' 
ADCP,ioos:station:wmo:42890:1,2012-04-01T16:23:00Z,27.6250,-90.4410,15.2,78.0,22.2,-9999.0,'11111222,11111222,99999999' 
ADCP,ioos:station:wmo:42890:1,2012-04-01T16:43:00Z,27.6250,-90.4410,15.2,76.0,22.4,-9999.0,'11111222,11111222,99999999' 
ADCP,ioos:station:wmo:42890:1,2012-04-01T17:03:00Z,27.6250,-90.4410,15.2,86.0,17.7,-9999.0,'11111222,11111222,99999999' 
ADCP,ioos:station:wmo:42890:1,2012-04-01T17:23:00Z,27.6250,-90.4410,15.2,84.0,20.7,-9999.0,'11111222,11111222,99999999' 
ADCP,ioos:station:wmo:42890:1,2012-04-01T17:43:00Z,27.6250,-90.4410,15.2,80.0,24.8,-9999.0,'11111222,11111222,99999999' 
ADCP,ioos:station:wmo:42890:1,2012-04-01T18:03:00Z,27.6250,-90.4410,15.2,79.0,20.8,-9999.0,'11111222,11111222,99999999' 
ADCP,ioos:station:wmo:42890:1,2012-04-01T18:23:00Z,27.6250,-90.4410,15.2,77.0,22.8,-9999.0,'11111222,11111222,99999999' 
ADCP,ioos:station:wmo:42890:1,2012-04-01T18:43:00Z,27.6250,-90.4410,15.2,74.0,27.6,-9999.0,'11111222,11111222,99999999' 
ADCP,ioos:station:wmo:42890:1,2012-04-01T19:03:00Z,27.6250,-90.4410,15.2,71.0,30.5,-9999.0,'11111222,11111222,99999999' 
ADCP,ioos:station:wmo:42890:1,2012-04-01T19:23:00Z,27.6250,-90.4410,15.2,68.0,29.8,-9999.0,'11111222,11111222,99999999' 
ADCP,ioos:station:wmo:42890:1,2012-04-01T19:43:00Z,27.6250,-90.4410,15.2,68.0,27.9,-9999.0,'11111222,11111222,99999999' 
ADCP,ioos:station:wmo:42890:1,2012-04-01T20:03:00Z,27.6250,-90.4410,15.2,71.0,25.7,-9999.0,'11111222,11111222,99999999' 
ADCP,ioos:station:wmo:42890:1,2012-04-01T20:23:00Z,27.6250,-90.4410,15.2,74.0,25.5,-9999.0,'11111222,11111222,99999999' 
ADCP,ioos:station:wmo:42890:1,2012-04-01T20:43:00Z,27.6250,-90.4410,15.2,78.0,25.5,-9999.0,'11111222,11111222,99999999' 
ADCP,ioos:station:wmo:42890:1,2012-04-01T21:03:00Z,27.6250,-90.4410,15.2,78.0,25.2,-9999.0,'11111222,11111222,99999999' 
ADCP,ioos:station:wmo:42890:1,2012-04-01T21:23:00Z,27.6250,-90.4410,15.2,78.0,24.3,-9999.0,'11111222,11111222,99999999' 
ADCP,ioos:station:wmo:42890:1,2012-04-01T21:43:00Z,27.6250,-90.4410,15.2,77.0,23.8,-9999.0,'11111222,11111222,99999999' 
ADCP,ioos:station:wmo:42890:1,2012-04-01T22:03:00Z,27.6250,-90.4410,15.2,74.0,22.2,-9999.0,'11111222,11111222,99999999' 
ADCP,ioos:station:wmo:42890:1,2012-04-01T22:23:00Z,27.6250,-90.4410,15.2,79.0,22.3,-9999.0,'11111222,11111222,99999999' 
ADCP,ioos:station:wmo:42890:1,2012-04-01T22:43:00Z,27.6250,-90.4410,15.2,80.0,20.0,-9999.0,'11111222,11111222,99999999' 
ADCP,ioos:station:wmo:42890:1,2012-04-01T23:03:00Z,27.6250,-90.4410,15.2,78.0,21.4,-9999.0,'11111222,11111222,99999999' 
ADCP,ioos:station:wmo:42890:1,2012-04-01T23:23:00Z,27.6250,-90.4410,15.2,80.0,21.5,-9999.0,'11111222,11111222,99999999' 
ADCP,ioos:station:wmo:42890:1,2012-04-01T23:43:00Z,27.6250,-90.4410,15.2,84.0,22.1,-9999.0,'11111222,11111222,99999999' 
ADCP,ioos:station:wmo:42890:1,2012-04-02T00:03:00Z,27.6250,-90.4410,15.2,86.0,19.5,-9999.0,'11111222,11111222,99999999' 
ADCP,ioos:station:wmo:42890:1,2012-04-02T00:23:00Z,27.6250,-90.4410,15.2,91.0,17.7,-9999.0,'11111222,11111222,99999999' 
ADCP,ioos:station:wmo:42890:1,2012-04-02T00:43:00Z,27.6250,-90.4410,15.2,99.0,19.4,-9999.0,'11111222,11111222,99999999' 
ADCP,ioos:station:wmo:42890:1,2012-04-02T01:03:00Z,27.6250,-90.4410,15.2,97.0,16.9,-9999.0,'11111222,11111222,99999999' 
ADCP,ioos:station:wmo:42890:1,2012-04-02T01:23:00Z,27.6250,-90.4410,15.2,94.0,16.1,-9999.0,'11111222,11111222,99999999' 
ADCP,ioos:station:wmo:42890:1,2012-04-02T01:43:00Z,27.6250,-90.4410,15.2,96.0,17.6,-9999.0,'11111222,11111222,99999999' 
ADCP,ioos:station:wmo:42890:1,2012-04-02T02:03:00Z,27.6250,-90.4410,15.2,98.0,17.6,-9999.0,'11111222,11111222,99999999' 
ADCP,ioos:station:wmo:42890:1,2012-04-02T02:23:00Z,27.6250,-90.4410,15.2,98.0,19.0,-9999.0,'11111222,11111222,99999999' 
ADCP,ioos:station:wmo:42890:1,2012-04-02T02:43:00Z,27.6250,-90.4410,15.2,98.0,17.2,-9999.0,'11111222,11111222,99999999' 
ADCP,ioos:station:wmo:42890:1,2012-04-02T03:03:00Z,27.6250,-90.4410,15.2,95.0,18.7,-9999.0,'11111222,11111222,99999999' 
ADCP,ioos:station:wmo:42890:1,2012-04-02T03:23:00Z,27.6250,-90.4410,15.2,93.0,20.3,-9999.0,'11111222,11111222,99999999' 
ADCP,ioos:station:wmo:42890:1,2012-04-02T03:43:00Z,27.6250,-90.4410,15.2,89.0,18.2,-9999.0,'11111222,11111222,99999999' 
ADCP,ioos:station:wmo:42890:1,2012-04-02T04:03:00Z,27.6250,-90.4410,15.2,87.0,19.8,-9999.0,'11111222,11111222,99999999' 
ADCP,ioos:station:wmo:42890:1,2012-04-02T04:23:00Z,27.6250,-90.4410,15.2,85.0,21.2,-9999.0,'11111222,11111222,99999999' 
ADCP,ioos:station:wmo:42890:1,2012-04-02T04:43:00Z,27.6250,-90.4410,15.2,89.0,21.3,-9999.0,'11111222,11111222,99999999' 
ADCP,ioos:station:wmo:42890:1,2012-04-02T05:03:00Z,27.6250,-90.4410,15.2,91.0,20.7,-9999.0,'11111222,11111222,99999999' 
ADCP,ioos:station:wmo:42890:1,2012-04-02T05:23:00Z,27.6250,-90.4410,15.2,92.0,19.4,-9999.0,'11111222,11111222,99999999' 
ADCP,ioos:station:wmo:42890:1,2012-04-02T05:43:00Z,27.6250,-90.4410,15.2,94.0,18.6,-9999.0,'11111222,11111222,99999999' 
ADCP,ioos:station:wmo:42890:1,2012-04-02T06:03:00Z,27.6250,-90.4410,15.2,94.0,21.8,-9999.0,'11111222,11111222,99999999' 
ADCP,ioos:station:wmo:42890:1,2012-04-02T06:23:00Z,27.6250,-90.4410,15.2,101.0,18.9,-9999.0,'11111222,11111222,99999999' 
ADCP,ioos:station:wmo:42890:1,2012-04-02T06:43:00Z,27.6250,-90.4410,15.2,100.0,19.9,-9999.0,'11111222,11111222,99999999' 
ADCP,ioos:station:wmo:42890:1,2012-04-02T07:03:00Z,27.6250,-90.4410,15.2,104.0,16.9,-9999.0,'11111222,11111222,99999999' 
ADCP,ioos:station:wmo:42890:1,2012-04-02T07:23:00Z,27.6250,-90.4410,15.2,106.0,16.5,-9999.0,'11111222,11111222,99999999' 
ADCP,ioos:station:wmo:42890:1,2012-04-02T07:43:00Z,27.6250,-90.4410,15.2,117.0,15.7,-9999.0,'11111222,11111222,99999999' 
ADCP,ioos:station:wmo:42890:1,2012-04-02T08:03:00Z,27.6250,-90.4410,15.2,116.0,17.1,-9999.0,'11111222,11111222,99999999' 
ADCP,ioos:station:wmo:42890:1,2012-04-02T08:23:00Z,27.6250,-90.4410,15.2,112.0,16.8,-9999.0,'11111222,11111222,99999999' 
ADCP,ioos:station:wmo:42890:1,2012-04-02T08:43:00Z,27.6250,-90.4410,15.2,119.0,15.2,-9999.0,'11111222,11111222,99999999' 
ADCP,ioos:station:wmo:42890:1,2012-04-02T09:03:00Z,27.6250,-90.4410,15.2,118.0,13.4,-9999.0,'11111222,11111222,99999999' 
ADCP,ioos:station:wmo:42890:1,2012-04-02T09:23:00Z,27.6250,-90.4410,15.2,131.0,12.3,-9999.0,'11111222,11111222,99999999' 
ADCP,ioos:station:wmo:42890:1,2012-04-02T09:43:00Z,27.6250,-90.4410,15.2,120.0,13.8,-9999.0,'11111222,11111222,99999999' 
ADCP,ioos:station:wmo:42890:1,2012-04-02T10:03:00Z,27.6250,-90.4410,15.2,118.0,19.7,-9999.0,'11111222,11111222,99999999' 
ADCP,ioos:station:wmo:42890:1,2012-04-02T10:23:00Z,27.6250,-90.4410,15.2,119.0,19.8,-9999.0,'11111222,11111222,99999999' 
ADCP,ioos:station:wmo:42890:1,2012-04-02T10:43:00Z,27.6250,-90.4410,15.2,119.0,18.0,-9999.0,'11111222,11111222,99999999' 
ADCP,ioos:station:wmo:42890:1,2012-04-02T11:03:00Z,27.6250,-90.4410,15.2,117.0,16.6,-9999.0,'11111222,11111222,99999999' 
ADCP,ioos:station:wmo:42890:1,2012-04-02T11:23:00Z,27.6250,-90.4410,15.2,117.0,17.0,-9999.0,'11111222,11111222,99999999' 
ADCP,ioos:station:wmo:42890:1,2012-04-02T11:43:00Z,27.6250,-90.4410,15.2,123.0,15.2,-9999.0,'11111222,11111222,99999999' 
ADCP,ioos:station:wmo:42890:1,2012-04-02T12:03:00Z,27.6250,-90.4410,15.2,119.0,13.3,-9999.0,'11111222,11111222,99999999' 
ADCP,ioos:station:wmo:42890:1,2012-04-02T12:23:00Z,27.6250,-90.4410,15.2,114.0,12.4,-9999.0,'11111222,11111222,99999999' 
ADCP,ioos:station:wmo:42890:1,2012-04-02T12:43:00Z,27.6250,-90.4410,15.2,115.0,11.4,-9999.0,'11111222,11111222,99999999' 
ADCP,ioos:station:wmo:42890:1,2012-04-02T13:03:00Z,27.6250,-90.4410,15.2,110.0,10.4,-9999.0,'11111222,11111222,99999999' 
ADCP,ioos:station:wmo:42890:1,2012-04-02T13:23:00Z,27.6250,-90.4410,15.2,109.0,7.8,-9999.0,'11133222,11111222,99999999' 
ADCP,ioos:station:wmo:42890:1,2012-04-02T13:43:00Z,27.6250,-90.4410,15.2,103.0,6.4,-9999.0,'11133222,11111222,99999999' 
ADCP,ioos:station:wmo:42890:1,2012-04-02T14:03:00Z,27.6250,-90.4410,15.2,94.0,4.3,-9999.0,'11133222,11111222,99999999' 
ADCP,ioos:station:wmo:42890:1,2012-04-02T14:23:00Z,27.6250,-90.4410,15.2,79.0,4.8,-9999.0,'11133222,11111222,99999999' 
ADCP,ioos:station:wmo:42890:1,2012-04-02T14:43:00Z,27.6250,-90.4410,15.2,66.0,6.7,-9999.0,'11133222,11111222,99999999' 
ADCP,ioos:station:wmo:42890:1,2012-04-02T15:03:00Z,27.6250,-90.4410,15.2,57.0,8.7,-9999.0,'11133222,11111222,99999999' 
ADCP,ioos:station:wmo:42890:1,2012-04-02T15:23:00Z,27.6250,-90.4410,15.2,47.0,9.9,-9999.0,'11133222,11111222,99999999' 
ADCP,ioos:station:wmo:42890:1,2012-04-02T15:43:00Z,27.6250,-90.4410,15.2,58.0,11.0,-9999.0,'11111222,11111222,99999999' 
ADCP,ioos:station:wmo:42890:1,2012-04-02T16:03:00Z,27.6250,-90.4410,15.2,63.0,11.2,-9999.0,'11111222,11111222,99999999' 
ADCP,ioos:station:wmo:42890:1,2012-04-02T16:23:00Z,27.6250,-90.4410,15.2,61.0,13.7,-9999.0,'11111222,11111222,99999999' 
ADCP,ioos:station:wmo:42890:1,2012-04-02T16:43:00Z,27.6250,-90.4410,15.2,61.0,14.2,-9999.0,'11111222,11111222,99999999' 
ADCP,ioos:station:wmo:42890:1,2012-04-02T17:03:00Z,27.6250,-90.4410,15.2,72.0,14.3,-9999.0,'11111222,11111222,99999999' 
ADCP,ioos:station:wmo:42890:1,2012-04-02T17:23:00Z,27.6250,-90.4410,15.2,72.0,15.3,-9999.0,'11111222,11111222,99999999' 
ADCP,ioos:station:wmo:42890:1,2012-04-02T17:43:00Z,27.6250,-90.4410,15.2,73.0,15.0,-9999.0,'11111222,11111222,99999999' 
ADCP,ioos:station:wmo:42890:1,2012-04-02T18:03:00Z,27.6250,-90.4410,15.2,75.0,16.0,-9999.0,'11111222,11111222,99999999' 
ADCP,ioos:station:wmo:42890:1,2012-04-02T18:23:00Z,27.6250,-90.4410,15.2,75.0,17.5,-9999.0,'11111222,11111222,99999999' 
ADCP,ioos:station:wmo:42890:1,2012-04-02T18:43:00Z,27.6250,-90.4410,15.2,73.0,18.2,-9999.0,'11111222,11111222,99999999' 
ADCP,ioos:station:wmo:42890:1,2012-04-02T19:03:00Z,27.6250,-90.4410,15.2,72.0,17.3,-9999.0,'11111222,11111222,99999999' 
ADCP,ioos:station:wmo:42890:1,2012-04-02T19:23:00Z,27.6250,-90.4410,15.2,68.0,18.0,-9999.0,'11111222,11111222,99999999' 
ADCP,ioos:station:wmo:42890:1,2012-04-02T19:43:00Z,27.6250,-90.4410,15.2,67.0,19.3,-9999.0,'11111222,11111222,99999999' 
ADCP,ioos:station:wmo:42890:1,2012-04-02T20:03:00Z,27.6250,-90.4410,15.2,69.0,18.3,-9999.0,'11111222,11111222,99999999' 
ADCP,ioos:station:wmo:42890:1,2012-04-02T20:23:00Z,27.6250,-90.4410,15.2,70.0,19.1,-9999.0,'11111222,11111222,99999999' 
ADCP,ioos:station:wmo:42890:1,2012-04-02T20:43:00Z,27.6250,-90.4410,15.2,63.0,19.8,-9999.0,'11111222,11111222,99999999' 
ADCP,ioos:station:wmo:42890:1,2012-04-02T21:03:00Z,27.6250,-90.4410,15.2,65.0,20.0,-9999.0,'11111222,11111222,99999999' 
ADCP,ioos:station:wmo:42890:1,2012-04-02T21:23:00Z,27.6250,-90.4410,15.2,60.0,19.8,-9999.0,'11111222,11111222,99999999' 
ADCP,ioos:station:wmo:42890:1,2012-04-02T21:43:00Z,27.6250,-90.4410,15.2,55.0,20.3,-9999.0,'11111222,11111222,99999999' 
ADCP,ioos:station:wmo:42890:1,2012-04-02T22:03:00Z,27.6250,-90.4410,15.2,53.0,20.4,-9999.0,'11111222,11111222,99999999' 
ADCP,ioos:station:wmo:42890:1,2012-04-02T22:23:00Z,27.6250,-90.4410,15.2,58.0,22.9,-9999.0,'11111222,11111222,99999999' 
ADCP,ioos:station:wmo:42890:1,2012-04-02T22:43:00Z,27.6250,-90.4410,15.2,64.0,21.4,-9999.0,'11111222,11111222,99999999' 
ADCP,ioos:station:wmo:42890:1,2012-04-02T23:03:00Z,27.6250,-90.4410,15.2,63.0,23.7,-9999.0,'11111222,11111222,99999999' 
ADCP,ioos:station:wmo:42890:1,2012-04-02T23:23:00Z,27.6250,-90.4410,15.2,66.0,21.5,-9999.0,'11111222,11111222,99999999' 
ADCP,ioos:station:wmo:42890:1,2012-04-02T23:43:00Z,27.6250,-90.4410,15.2,65.0,23.1,-9999.0,'11111222,11111222,99999999' 
ADCP,ioos:station:wmo:42890:1,2012-04-03T00:03:00Z,27.6250,-90.4410,15.2,67.0,27.2,-9999.0,'11111222,11111222,99999999' 
ADCP,ioos:station:wmo:42890:1,2012-04-03T00:23:00Z,27.6250,-90.4410,15.2,68.0,24.1,-9999.0,'11111222,11111222,99999999' 
ADCP,ioos:station:wmo:42890:1,2012-04-03T00:43:00Z,27.6250,-90.4410,15.2,67.0,21.9,-9999.0,'11111222,11111222,99999999' 
ADCP,ioos:station:wmo:42890:1,2012-04-03T01:03:00Z,27.6250,-90.4410,15.2,55.0,17.9,-9999.0,'11111222,11111222,99999999' 
ADCP,ioos:station:wmo:42890:1,2012-04-03T01:23:00Z,27.6250,-90.4410,15.2,56.0,14.4,-9999.0,'11111222,11111222,99999999' 
ADCP,ioos:station:wmo:42890:1,2012-04-03T01:43:00Z,27.6250,-90.4410,15.2,62.0,12.7,-9999.0,'11111222,11111222,99999999' 
ADCP,ioos:station:wmo:42890:1,2012-04-03T02:03:00Z,27.6250,-90.4410,15.2,67.0,18.1,-9999.0,'11111222,11111222,99999999' 
ADCP,ioos:station:wmo:42890:1,2012-04-03T02:23:00Z,27.6250,-90.4410,15.2,57.0,12.6,-9999.0,'11111222,11111222,99999999' 
ADCP,ioos:station:wmo:42890:1,2012-04-03T02:43:00Z,27.6250,-90.4410,15.2,59.0,14.8,-9999.0,'11111222,11111222,99999999' 
ADCP,ioos:station:wmo:42890:1,2012-04-03T03:03:00Z,27.6250,-90.4410,15.2,56.0,18.8,-9999.0,'11111222,11111222,99999999' 
ADCP,ioos:station:wmo:42890:1,2012-04-03T03:23:00Z,27.6250,-90.4410,15.2,61.0,19.3,-9999.0,'11111222,11111222,99999999' 
ADCP,ioos:station:wmo:42890:1,2012-04-03T03:43:00Z,27.6250,-90.4410,15.2,59.0,19.4,-9999.0,'11111222,11111222,99999999' 
ADCP,ioos:station:wmo:42890:1,2012-04-03T04:03:00Z,27.6250,-90.4410,15.2,62.0,19.5,-9999.0,'11111222,11111222,99999999' 
ADCP,ioos:station:wmo:42890:1,2012-04-03T04:23:00Z,27.6250,-90.4410,15.2,64.0,18.8,-9999.0,'11111222,11111222,99999999' 
ADCP,ioos:station:wmo:42890:1,2012-04-03T04:43:00Z,27.6250,-90.4410,15.2,64.0,18.5,-9999.0,'11111222,11111222,99999999' 
ADCP,ioos:station:wmo:42890:1,2012-04-03T05:03:00Z,27.6250,-90.4410,15.2,63.0,21.3,-9999.0,'11111222,11111222,99999999' 
ADCP,ioos:station:wmo:42890:1,2012-04-03T05:23:00Z,27.6250,-90.4410,15.2,63.0,20.4,-9999.0,'11111222,11111222,99999999' 
ADCP,ioos:station:wmo:42890:1,2012-04-03T05:43:00Z,27.6250,-90.4410,15.2,61.0,17.3,-9999.0,'11111222,11111222,99999999' 
ADCP,ioos:station:wmo:42890:1,2012-04-03T06:03:00Z,27.6250,-90.4410,15.2,68.0,19.4,-9999.0,'11111222,11111222,99999999' 
ADCP,ioos:station:wmo:42890:1,2012-04-03T06:23:00Z,27.6250,-90.4410,15.2,69.0,19.8,-9999.0,'11111222,11111222,99999999' 
ADCP,ioos:station:wmo:42890:1,2012-04-03T06:43:00Z,27.6250,-90.4410,15.2,69.0,19.2,-9999.0,'11111222,11111222,99999999' 
ADCP,ioos:station:wmo:42890:1,2012-04-03T07:03:00Z,27.6250,-90.4410,15.2,73.0,17.7,-9999.0,'11111222,11111222,99999999' 
ADCP,ioos:station:wmo:42890:1,2012-04-03T07:23:00Z,27.6250,-90.4410,15.2,110.0,10.3,-9999.0,'11111222,11111222,99999999' 
ADCP,ioos:station:wmo:42890:1,2012-04-03T07:43:00Z,27.6250,-90.4410,15.2,134.0,10.9,-9999.0,'11111222,11111222,99999999' 
ADCP,ioos:station:wmo:42890:1,2012-04-03T08:03:00Z,27.6250,-90.4410,15.2,141.0,16.1,-9999.0,'11111222,11111222,99999999' 
ADCP,ioos:station:wmo:42890:1,2012-04-03T08:23:00Z,27.6250,-90.4410,15.2,145.0,18.0,-9999.0,'11111222,11111222,99999999' 
ADCP,ioos:station:wmo:42890:1,2012-04-03T08:43:00Z,27.6250,-90.4410,15.2,161.0,16.3,-9999.0,'11111222,11111222,99999999' 
ADCP,ioos:station:wmo:42890:1,2012-04-03T09:03:00Z,27.6250,-90.4410,15.2,171.0,18.2,-9999.0,'11111222,11111222,99999999' 
ADCP,ioos:station:wmo:42890:1,2012-04-03T09:23:00Z,27.6250,-90.4410,15.2,168.0,19.8,-9999.0,'11111222,11111222,99999999' 
ADCP,ioos:station:wmo:42890:1,2012-04-03T09:43:00Z,27.6250,-90.4410,15.2,159.0,20.1,-9999.0,'11111222,11111222,99999999' 
ADCP,ioos:station:wmo:42890:1,2012-04-03T10:03:00Z,27.6250,-90.4410,15.2,167.0,20.0,-9999.0,'11111222,11111222,99999999' 
ADCP,ioos:station:wmo:42890:1,2012-04-03T10:23:00Z,27.6250,-90.4410,15.2,167.0,20.6,-9999.0,'11111222,11111222,99999999' 
ADCP,ioos:station:wmo:42890:1,2012-04-03T10:43:00Z,27.6250,-90.4410,15.2,164.0,17.5,-9999.0,'11111222,11111222,99999999' 
ADCP,ioos:station:wmo:42890:1,2012-04-03T11:03:00Z,27.6250,-90.4410,15.2,170.0,17.1,-9999.0,'11111222,11111222,99999999' 
ADCP,ioos:station:wmo:42890:1,2012-04-03T11:23:00Z,27.6250,-90.4410,15.2,188.0,16.8,-9999.0,'11111222,11111222,99999999' 
ADCP,ioos:station:wmo:42890:1,2012-04-03T11:43:00Z,27.6250,-90.4410,15.2,209.0,18.0,-9999.0,'11111222,11111222,99999999' 
ADCP,ioos:station:wmo:42890:1,2012-04-03T12:03:00Z,27.6250,-90.4410,15.2,217.0,20.8,-9999.0,'11111222,11111222,99999999' 
ADCP,ioos:station:wmo:42890:1,2012-04-03T12:23:00Z,27.6250,-90.4410,15.2,216.0,19.5,-9999.0,'11111222,11111222,99999999' 
ADCP,ioos:station:wmo:42890:1,2012-04-03T12:43:00Z,27.6250,-90.4410,15.2,211.0,19.3,-9999.0,'11111222,11111222,99999999' 
ADCP,ioos:station:wmo:42890:1,2012-04-03T13:03:00Z,27.6250,-90.4410,15.2,208.0,17.4,-9999.0,'11111222,11111222,99999999' 
ADCP,ioos:station:wmo:42890:1,2012-04-03T13:23:00Z,27.6250,-90.4410,15.2,206.0,17.5,-9999.0,'11111222,11111222,99999999' 
ADCP,ioos:station:wmo:42890:1,2012-04-03T13:43:00Z,27.6250,-90.4410,15.2,201.0,17.3,-9999.0,'11111222,11111222,99999999' 
ADCP,ioos:station:wmo:42890:1,2012-04-03T14:03:00Z,27.6250,-90.4410,15.2,204.0,17.5,-9999.0,'11111222,11111222,99999999' 
ADCP,ioos:station:wmo:42890:1,2012-04-03T14:23:00Z,27.6250,-90.4410,15.2,200.0,16.7,-9999.0,'11111222,11111222,99999999' 
ADCP,ioos:station:wmo:42890:1,2012-04-03T14:43:00Z,27.6250,-90.4410,15.2,197.0,14.8,-9999.0,'11111222,11111222,99999999' 
ADCP,ioos:station:wmo:42890:1,2012-04-03T15:03:00Z,27.6250,-90.4410,15.2,198.0,15.7,-9999.0,'11111222,11111222,99999999' 
ADCP,ioos:station:wmo:42890:1,2012-04-03T15:23:00Z,27.6250,-90.4410,15.2,196.0,14.6,-9999.0,'11111222,11111222,99999999' 
ADCP,ioos:station:wmo:42890:1,2012-04-03T15:43:00Z,27.6250,-90.4410,15.2,194.0,13.8,-9999.0,'11111222,11111222,99999999' 
ADCP,ioos:station:wmo:42890:1,2012-04-03T16:03:00Z,27.6250,-90.4410,15.2,197.0,15.6,-9999.0,'11111222,11111222,99999999' 
ADCP,ioos:station:wmo:42890:1,2012-04-03T16:23:00Z,27.6250,-90.4410,15.2,196.0,12.7,-9999.0,'11111222,11111222,99999999' 
ADCP,ioos:station:wmo:42890:1,2012-04-03T16:43:00Z,27.6250,-90.4410,15.2,208.0,15.3,-9999.0,'11111222,11111222,99999999' 
ADCP,ioos:station:wmo:42890:1,2012-04-03T17:03:00Z,27.6250,-90.4410,15.2,213.0,14.8,-9999.0,'11111222,11111222,99999999' 